Impacts TAF Board
For situational awareness. Not to be used for flight planning purposes.
IDs:

KDFW - Dallas-Ft Worth Intl, TX, US

Issued at 0522 UTC 24 Jan 2019
Updated at 0723 UTC 24 Jan 2019
Potential Impact None Slight Moderate High
Time<<25/08Z 25/09Z 25/10Z 25/11Z 25/12Z 25/13Z 25/14Z 25/15Z 25/16Z 25/17Z 25/18Z 25/19Z 25/20Z
Type PRVL PRVL PRVL PRVL
VIS >6 >6 >6 >6
CIG 100 100 100 100
Cover BKN BKN BKN BKN
FltCat VFR VFR VFR VFR
WX -- -- -- --
WDir 10 10 10 10
WSpd 12 12 12 12
WGst -- -- -- --
Raw TAF
KDFW 240522Z 2406/2512 19006KT P6SM SKC
  FM242000 09009KT P6SM BKN120
  FM242300 01012KT P6SM BKN100


METAR Board
Radar Display
Forecast Discussion
For situational awareness. Not to be used for flight planning purposes.